Weather History for KI75 - July, 2013

Change the Weather History Date:

Saturday, July 20, 2013

  Actual Average (KLWD) Record (KLWD)
Temperature  
Mean Temperature 74 °F 75 °F  
Max Temperature 88 °F 85 °F 101 °F (1980)
Min Temperature 62 °F 66 °F 48 °F (2007)
Degree Days  
Heating Degree Days 0 0  
Month to date heating degree days 0  
Since 1 June heating degree days 19  
Since 1 July heating degree days 0  
Cooling Degree Days 10 11  
Month to date cooling degree days 200  
Year to date cooling degree days 447  
Since 1 June cooling degree days 393  
Growing Degree Days 24 (Base 50)    
Moisture  
Dew Point 58 °F    
Average Humidity 57    
Maximum Humidity 89    
Minimum Humidity 25    
Precipitation  
Precipitation 0.00 in 0.17 in 2.24 in (1973)
Month to date precipitation 3.27  
Sea Level Pressure  
Sea Level Pressure 29.94 in    
Wind  
Wind Speed 4 mph (NE)    
Max Wind Speed 8 mph    
Max Gust Speed -    
Visibility 10 miles    
Events      
T = Trace of Precipitation, MM = Missing Value Source: NWS Daily Summary

Daily Weather History Graph

Daily Weather History Graph

Search for Another Location

Airport or City:

Trip Planner

Search our weather history database for the weather conditions in past years. The results will help you decide how hot, cold, wet, or windy it might be!

Date:

Astronomy

Jul. 20, 2013 Rise Set
Actual Time 5:59 AM CDT 8:42 PM CDT
Civil Twilight 5:27 AM CDT 9:14 PM CDT
Nautical Twilight 4:47 AM CDT 9:54 PM CDT
Astronomical Twilight 4:01 AM CDT 10:39 PM CDT
Moon 6:46 PM CDT (7/20) 3:40 AM CDT (7/20)
Length of Visible Light 15h 46m
Length of Day
14h 42m
Waxing Gibbous, 94% of the Moon is Illuminated
Jul 20
Waxing Gibbous
Jul 22
Full
Jul 29
Last Quarter
Aug 6
New
Aug 14
First Quarter

Hourly Weather History & Observations

Time (CDT) Temp. Heat Index Dew Point Humidity Pressure Visibility Wind Dir Wind Speed Gust Speed Precip Events Conditions
12:15 AM 72.9 °F - 63.0 °F 71% 29.92 in 10.0 mi North 5.8 mph - N/A   Clear
12:35 AM 73.4 °F - 62.8 °F 69% 29.93 in 10.0 mi North 5.8 mph - N/A   Clear
12:55 AM 73.4 °F - 62.2 °F 68% 29.93 in 10.0 mi North 5.8 mph - N/A   Clear
1:15 AM 72.3 °F - 62.4 °F 71% 29.94 in 10.0 mi North 4.6 mph - N/A   Clear
1:35 AM 71.1 °F - 62.6 °F 75% 29.94 in 10.0 mi North 4.6 mph - N/A   Clear
1:55 AM 70.2 °F - 62.6 °F 77% 29.94 in 10.0 mi Calm Calm - N/A   Clear
2:15 AM 69.3 °F - 62.6 °F 79% 29.94 in 10.0 mi North 5.8 mph - N/A   Clear
2:35 AM 69.1 °F - 61.9 °F 78% 29.94 in 10.0 mi North 4.6 mph - N/A   Clear
2:55 AM 68.9 °F - 61.5 °F 77% 29.94 in 10.0 mi North 4.6 mph - N/A   Clear
3:15 AM 68.4 °F - 61.0 °F 77% 29.94 in 10.0 mi North 3.5 mph - N/A   Clear
3:35 AM 67.8 °F - 60.8 °F 78% 29.93 in 10.0 mi North 5.8 mph - N/A   Clear
3:55 AM 66.6 °F - 60.3 °F 80% 29.93 in 10.0 mi NNW 5.8 mph - N/A   Clear
4:15 AM 65.8 °F - 60.4 °F 83% 29.93 in 10.0 mi North 5.8 mph - N/A   Clear
4:35 AM 66.2 °F - 60.3 °F 81% 29.93 in 10.0 mi North 5.8 mph - N/A   Clear
4:55 AM 65.3 °F - 60.1 °F 83% 29.93 in 10.0 mi NNW 4.6 mph - N/A   Clear
5:15 AM 64.6 °F - 59.7 °F 84% 29.94 in 10.0 mi Calm Calm - N/A   Clear
5:35 AM 63.5 °F - 59.4 °F 86% 29.94 in 10.0 mi NNW 3.5 mph - N/A   Clear
5:55 AM 63.5 °F - 59.4 °F 86% 29.93 in 10.0 mi North 4.6 mph - N/A   Clear
6:15 AM 63.5 °F - 59.4 °F 86% 29.93 in 10.0 mi Calm Calm - N/A   Clear
6:35 AM 62.4 °F - 59.0 °F 89% 29.93 in 10.0 mi Calm Calm - N/A   Clear
6:55 AM 64.4 °F - 60.3 °F 86% 29.92 in 7.0 mi Calm Calm - N/A   Clear
7:15 AM 67.6 °F - 61.2 °F 80% 29.93 in 10.0 mi Calm Calm - N/A   Clear
7:35 AM 69.8 °F - 61.2 °F 74% 29.94 in 10.0 mi ENE 3.5 mph - N/A   Clear
7:55 AM 70.7 °F - 61.5 °F 73% 29.95 in 10.0 mi ENE 3.5 mph - N/A   Clear
8:15 AM 72.5 °F - 61.7 °F 69% 29.94 in 10.0 mi East 5.8 mph - N/A   Clear
8:35 AM 73.9 °F - 61.0 °F 64% 29.95 in 10.0 mi East 5.8 mph - N/A   Clear
8:55 AM 75.6 °F - 61.5 °F 62% 29.95 in 10.0 mi East 3.5 mph - N/A   Clear
9:15 AM 76.5 °F - 60.8 °F 58% 29.96 in 10.0 mi ENE 4.6 mph - N/A   Clear
9:35 AM 77.9 °F - 59.9 °F 54% 29.96 in 10.0 mi East 5.8 mph - N/A   Clear
9:55 AM 78.1 °F - 60.4 °F 54% 29.96 in 10.0 mi ENE 6.9 mph - N/A   Clear
10:15 AM 79.2 °F - 61.3 °F 54% 29.99 in 10.0 mi North 8.1 mph - N/A   Clear
10:35 AM 78.4 °F - 60.8 °F 55% 29.99 in 10.0 mi North 3.5 mph - N/A   Clear
10:55 AM 79.7 °F - 60.8 °F 52% 30.00 in 10.0 mi North 6.9 mph - N/A   Clear
11:15 AM 80.4 °F 81.0 °F 58.8 °F 48% 29.99 in 10.0 mi North 5.8 mph - N/A   Clear
11:35 AM 81.5 °F 81.0 °F 54.9 °F 40% 29.98 in 10.0 mi North 4.6 mph - N/A   Clear
11:55 AM 82.0 °F 81.8 °F 57.2 °F 43% 29.99 in 10.0 mi NNE 6.9 mph - N/A   Clear
12:15 PM 82.4 °F 82.2 °F 58.1 °F 43% 29.99 in 10.0 mi NNE 3.5 mph - N/A   Clear
12:35 PM 83.3 °F 82.9 °F 58.1 °F 42% 29.98 in 10.0 mi North 8.1 mph - N/A   Clear
12:55 PM 83.1 °F 82.6 °F 57.2 °F 41% 29.98 in 10.0 mi North 8.1 mph - N/A   Clear
1:15 PM 83.8 °F 83.1 °F 57.0 °F 40% 29.98 in 10.0 mi NNE 6.9 mph - N/A   Clear
1:35 PM 85.1 °F 83.8 °F 55.4 °F 36% 29.97 in 10.0 mi NNE 5.8 mph - N/A   Clear
1:55 PM 84.7 °F - 51.6 °F 32% 29.95 in 10.0 mi NNE 4.6 mph - N/A   Clear
2:15 PM 85.8 °F 84.0 °F 53.4 °F 33% 29.95 in 10.0 mi NE 6.9 mph - N/A   Clear
2:35 PM 85.5 °F - 49.3 °F 28% 29.94 in 10.0 mi East 3.5 mph - N/A   Clear
2:55 PM 87.1 °F - 50.5 °F 28% 29.93 in 10.0 mi East 5.8 mph - N/A   Clear
3:15 PM 87.1 °F - 50.7 °F 29% 29.93 in 10.0 mi SE 5.8 mph - N/A   Clear
3:35 PM 87.8 °F - 48.2 °F 25% 29.93 in 10.0 mi ENE 3.5 mph - N/A   Clear
3:55 PM 87.4 °F - 51.8 °F 29% 29.93 in 10.0 mi NNW 4.6 mph - N/A   Clear
4:15 PM 86.4 °F - 50.2 °F 29% 29.92 in 10.0 mi East 3.5 mph - N/A   Clear
4:35 PM 87.6 °F - 52.2 °F 30% 29.92 in 10.0 mi East 4.6 mph - N/A   Clear
4:55 PM 87.4 °F - 52.2 °F 30% 29.92 in 10.0 mi ESE 4.6 mph - N/A   Clear
5:15 PM 87.3 °F - 48.9 °F 27% 29.91 in 10.0 mi Calm Calm - N/A   Clear
5:35 PM 86.7 °F - 48.9 °F 27% 29.90 in 10.0 mi ENE 3.5 mph - N/A   Clear
5:55 PM 86.4 °F - 49.6 °F 28% 29.90 in 10.0 mi Calm Calm - N/A   Clear
6:15 PM 85.6 °F - 51.1 °F 30% 29.89 in 10.0 mi East 3.5 mph - N/A   Clear
6:35 PM 86.4 °F - 51.4 °F 30% 29.89 in 10.0 mi Calm Calm - N/A   Clear
6:55 PM 85.3 °F - 52.5 °F 32% 29.89 in 10.0 mi ESE 3.5 mph - N/A   Clear
7:15 PM 84.9 °F 83.7 °F 55.9 °F 37% 29.89 in 7.0 mi SE 3.5 mph - N/A   Clear
7:35 PM 83.8 °F 83.0 °F 56.1 °F 39% 29.89 in 10.0 mi ESE 3.5 mph - N/A   Clear
7:55 PM 83.3 °F 83.1 °F 58.6 °F 43% 29.90 in 10.0 mi Calm Calm - N/A   Clear
8:15 PM 81.3 °F 81.9 °F 60.4 °F 49% 29.90 in 10.0 mi ENE 3.5 mph - N/A   Clear
8:35 PM 78.4 °F - 61.0 °F 55% 29.90 in 10.0 mi East 3.5 mph - N/A   Clear
8:55 PM 76.1 °F - 61.5 °F 60% 29.90 in 10.0 mi East 3.5 mph - N/A   Clear
9:15 PM 74.8 °F - 60.3 °F 60% 29.90 in 10.0 mi ENE 4.6 mph - N/A   Clear
9:35 PM 74.3 °F - 60.1 °F 61% 29.91 in 10.0 mi East 4.6 mph - N/A   Clear
9:55 PM 73.4 °F - 60.8 °F 65% 29.92 in 10.0 mi ESE 4.6 mph - N/A   Clear
10:15 PM 73.8 °F - 61.0 °F 64% 29.94 in 10.0 mi ESE 3.5 mph - N/A   Clear
10:35 PM 72.7 °F - 61.2 °F 67% 29.94 in 7.0 mi South 3.5 mph - N/A   Clear
10:55 PM 72.1 °F - 61.7 °F 70% 29.95 in 10.0 mi South 5.8 mph - N/A   Clear
11:15 PM 73.9 °F - 61.0 °F 64% 29.94 in 10.0 mi South 4.6 mph - N/A   Clear
11:35 PM 73.9 °F - 60.3 °F 62% 29.94 in 10.0 mi SSE 3.5 mph - N/A   Clear
11:55 PM 73.4 °F - 59.9 °F 63% 29.94 in 10.0 mi South 3.5 mph - N/A   Clear